[Date Prev][Date Next][Thread Prev][Thread Next] - [Date Index][Thread Index][Author Index]

2 Line ISS Keps 2-1



ISS
1 25544U 98067A   04032.20129162  .00016621  00000-0  15982-3 0  1101
2 25544  51.6300 303.0444 0007760 113.6104  49.2376 15.66686839296827



----
Via the sarex mailing list at AMSAT.ORG courtesy of AMSAT-NA.
To unsubscribe, send "unsubscribe sarex" to Majordomo@amsat.org



AMSAT Top AMSAT Home